STARLINK-34653, 64917

Orbit data source: Space-Track

STARLINK-34653, 64917 is a payload satellite owned by SpaceX/Seattle (US) in LEO that was launched on Sat, 26 Jul 2025 UTC via an FALCON 9 launch vehicle from the Air Force Eastern Test Range (AFETR). Payload-class satellites include a variety of spacecraft equipped with specific instruments for various scientific and technological missions. These include communications satellites like Starlink; space stations such as the ISS; scientific satellites like the Hubble; Earth observation satellites from companies like Planet Labs, Umbra, and HawkEye 360; GPS; miniature CubeSats for education and research; and military/defense satellites.

Loading next visibility...
Identifier
64917, 2025-157P
Orbit
LEO
Country
Flag of USUS
Related business
Manufacturer
SpaceX/Seattle
Mission
Operational Commercial Communications
Bus & Motor
STARLINK V2MO, Unknown motor
Mass
575 kg wet, ~530 kg dry
Launch date (UTC)
2025-07-26 (4 months ago)
Launch vehicle
FALCON 9
Launch site
Air Force Eastern Test Range (AFETR)
Object type
Payload
Rocket body
Debris
Shape & HBR
Box + 2 Pan, 17.7 m
Radar Cross Section
36.964 m², Large (>1 m²)

Expand to show TLE details & history
Last TLE update: 16 hours ago

TLE from 16 hours ago
0 STARLINK-34653
1 64917U 25157P   25340.51458317  .00073697  00000-0  18302-2 0  9993
2 64917  53.1585  62.3364 0001508  81.3260 278.7916 15.39693773 21752
Epoch: 2025-12-06T12:20Z
TLE epoch observation values (Epoch: 2025-12-06T12:20:59.985Z)
Latitude
-0.00002°
Longitude
161.54523°
Altitude
447.76 km
Speed
7.645 km/s
True Right ascension
04h 09m 20s
True Declination
0° 00' 00"
Sunlit
Object was in full shadow at epoch
Visualization orbit readout
Latitude
Unknown
Longitude
Unknown
Altitude
Unknown
Speed
Unknown
Apparent Right ascension
Unknown
Apparent Declination
Unknown
Sunlit
N/A
Visualization observer readout
Local Sidereal Time
02:29:58
Azimuth
Unknown
Elevation
Unknown
Doppler factor
Unknown
Orbital elements
Apogee altitude
448.301 km
Perigee altitude
446.243 km
Semi-major axis
6,825.409 km
Eccentricity
0.00015
Inclination
53.1585°
RAAN
62.3364°
Arg. of periapsis
81.326°
True anomaly
278.77452°
Mean anomaly
278.7916°
Eccentric anomaly
278.78306°
Mean motion
3.84902 °/min
Orbital period
93.53 mins
BSTAR
0.0018302
Loading maneuver chart data...
Computing Atmospheric mass density...
Loading historical data...
Loading historical data...
Loading historical data...
Loading historical data...
Loading historical data...
Loading historical data...
Loading historical data...

Documentation

Showing up to 5 results
|